Location: Czekanka
(50.4925°N, 19.2643°E)
Time: 01:35:09
(UTC+00:00)

CZ-2C R/B - Pass Details

Date: 21 September 2024
Orbit: 703 x 903 km, 98.2° (Epoch: 09 October)

Event Time Altitude Azimuth Distance (km) Brightness Sun altitude
Rises 23:56:07 0° 18° (NNE) 3,535 7.4 -36.1°
Reaches altitude 10° 23:58:42 10° 26° (NNE) 2,595 6.5 -36.0°
Enters shadow 00:02:55 36° 66° (ENE) 1,389 4.5 -35.7°
